| time (UTC) | temp F | wind direction | speed knots | gust knots | rain 1hr in | rain 24hr in | rain mn in | humidity % | barometer mb |
| 20260903232106 | 77 | 221 | 0.0 | 0.0 | 0.00 | 0.48 | 0.48 | 90 | 1011.8 |
| 20260903231105 | 77 | 221 | 0.0 | 0.0 | 0.00 | 0.48 | 0.48 | 89 | 1011.9 |
| 20260903230606 | 77 | 221 | 0.0 | 0.0 | 0.00 | 0.48 | 0.48 | 89 | 1011.8 |
| 20260903230105 | 77 | 221 | 0.0 | 0.0 | 0.00 | 0.48 | 0.48 | 89 | 1011.8 |
| 20260903225605 | 78 | 221 | 0.0 | 0.0 | 0.00 | 0.48 | 0.48 | 89 | 1011.8 |
| 20260903224606 | 78 | 221 | 0.0 | 0.0 | 0.00 | 0.48 | 0.48 | 89 | 1012.0 |
| 20260903224106 | 78 | 221 | 0.0 | 0.0 | 0.00 | 0.48 | 0.48 | 88 | 1012.0 |
| 20260903223605 | 78 | 221 | 0.0 | 0.0 | 0.00 | 0.48 | 0.48 | 88 | 1012.0 |
| 20260903222606 | 78 | 221 | 0.0 | 0.0 | 0.00 | 0.48 | 0.48 | 87 | 1012.2 |
| 20260903222106 | 78 | 221 | 0.0 | 0.0 | 0.00 | 0.48 | 0.48 | 86 | 1012.2 |
| 20260903221106 | 79 | 221 | 0.0 | 0.0 | 0.00 | 0.48 | 0.48 | 85 | 1012.2 |
| 20260903220606 | 79 | 221 | 0.0 | 0.0 | 0.00 | 0.48 | 0.48 | 85 | 1012.1 |
| 20260903215606 | 80 | 221 | 0.0 | 0.0 | 0.00 | 0.48 | 0.48 | 85 | 1012.2 |
| 20260903215106 | 80 | 221 | 0.0 | 0.0 | 0.00 | 0.48 | 0.48 | 84 | 1012.2 |
| 20260903214106 | 80 | 221 | 0.0 | 0.0 | 0.00 | 0.48 | 0.48 | 82 | 1012.3 |
| 20260903213607 | 81 | 221 | 0.0 | 0.0 | 0.00 | 0.48 | 0.48 | 82 | 1012.1 |
| 20260903213105 | 81 | 221 | 0.0 | 0.0 | 0.00 | 0.48 | 0.48 | 81 | 1012.0 |
| 20260903212606 | 81 | 221 | 0.0 | 0.0 | 0.00 | 0.48 | 0.48 | 84 | 1011.9 |
| 20260903212106 | 81 | 221 | 0.0 | 0.0 | 0.00 | 0.48 | 0.48 | 85 | 1011.9 |
| 20260903211106 | 81 | 222 | 0.0 | 0.0 | 0.00 | 0.48 | 0.48 | 85 | 1012.0 |
| 20260903210606 | 81 | 222 | 0.0 | 0.0 | 0.00 | 0.48 | 0.48 | 85 | 1012.0 |
| 20260903210106 | 81 | 222 | 0.0 | 0.0 | 0.00 | 0.48 | 0.48 | 84 | 1012.1 |
| 20260903205606 | 81 | 222 | 0.0 | 0.0 | 0.00 | 0.48 | 0.48 | 83 | 1012.2 |
| 20260903204606 | 81 | 222 | 0.0 | 0.0 | 0.00 | 0.48 | 0.48 | 83 | 1012.1 |
| 20260903204106 | 82 | 222 | 0.0 | 0.0 | 0.00 | 0.48 | 0.48 | 82 | 1012.2 |
| 20260903203607 | 82 | 222 | 0.0 | 0.9 | 0.00 | 0.48 | 0.48 | 80 | 1012.1 |
| 20260903202606 | 82 | 222 | 0.0 | 0.0 | 0.00 | 0.48 | 0.48 | 81 | 1012.2 |
| 20260903202106 | 82 | 222 | 0.0 | 0.9 | 0.00 | 0.48 | 0.48 | 82 | 1012.2 |
| 20260903201606 | 83 | 222 | 0.0 | 0.9 | 0.00 | 0.48 | 0.48 | 82 | 1012.2 |
| 20260903201106 | 83 | 222 | 0.0 | 0.9 | 0.00 | 0.48 | 0.48 | 80 | 1012.1 |
| 20260903200606 | 83 | 222 | 0.0 | 0.0 | 0.00 | 0.48 | 0.48 | 81 | 1012.1 |
| 20260903200106 | 83 | 222 | 0.0 | 0.0 | 0.00 | 0.48 | 0.48 | 81 | 1012.1 |
| 20260903195106 | 83 | 222 | 0.0 | 0.0 | 0.00 | 0.48 | 0.48 | 79 | 1012.3 |
| 20260903194606 | 83 | 222 | 0.0 | 0.9 | 0.00 | 0.48 | 0.48 | 78 | 1012.3 |
| 20260903194105 | 84 | 222 | 0.0 | 1.7 | 0.00 | 0.48 | 0.48 | 77 | 1012.4 |
| 20260903193606 | 84 | 222 | 0.9 | 2.6 | 0.00 | 0.48 | 0.48 | 76 | 1012.3 |
| 20260903193106 | 84 | 214 | 0.0 | 0.9 | 0.00 | 0.48 | 0.48 | 77 | 1012.3 |
| 20260903192606 | 84 | 214 | 0.0 | 0.9 | 0.00 | 0.48 | 0.48 | 76 | 1012.3 |
| 20260903191106 | 83 | 227 | 0.9 | 2.6 | 0.00 | 0.48 | 0.48 | 78 | 1012.5 |
| 20260903190605 | 83 | 222 | 0.0 | 2.6 | 0.00 | 0.48 | 0.48 | 78 | 1012.5 |
| 20260903190106 | 82 | 240 | 0.0 | 1.7 | 0.00 | 0.48 | 0.48 | 78 | 1012.7 |
| 20260903185106 | 82 | 151 | 1.7 | 2.6 | 0.00 | 0.48 | 0.48 | 76 | 1012.8 |
| 20260903184106 | 82 | 43 | 0.9 | 2.6 | 0.00 | 0.48 | 0.48 | 79 | 1012.8 |
| 20260903183605 | 82 | 244 | 0.9 | 1.7 | 0.00 | 0.48 | 0.48 | 78 | 1012.9 |
| 20260903183106 | 81 | 244 | 0.9 | 2.6 | 0.00 | 0.48 | 0.48 | 78 | 1013.0 |
| 20260903182605 | 82 | 142 | 0.9 | 2.6 | 0.00 | 0.48 | 0.48 | 78 | 1013.0 |
| 20260903182106 | 81 | 238 | 0.0 | 2.6 | 0.00 | 0.48 | 0.48 | 81 | 1013.0 |
| 20260903181606 | 81 | 240 | 0.0 | 2.6 | 0.00 | 0.48 | 0.48 | 83 | 1012.9 |
| 20260903181105 | 81 | 172 | 0.0 | 1.7 | 0.00 | 0.48 | 0.48 | 82 | 1013.0 |
| 20260903180106 | 80 | 250 | 1.7 | 2.6 | 0.00 | 0.48 | 0.48 | 80 | 1013.1 |
| 20260903175606 | 80 | 220 | 0.9 | 2.6 | 0.00 | 0.48 | 0.48 | 83 | 1013.2 |
| 20260903175105 | 79 | 223 | 0.9 | 2.6 | 0.00 | 0.48 | 0.48 | 80 | 1013.2 |
| 20260903174105 | 79 | 205 | 0.9 | 1.7 | 0.00 | 0.48 | 0.48 | 80 | 1013.1 |
| 20260903173605 | 79 | 240 | 0.9 | 2.6 | 0.00 | 0.48 | 0.48 | 82 | 1013.2 |
| 20260903173106 | 79 | 243 | 0.9 | 1.7 | 0.00 | 0.48 | 0.48 | 81 | 1013.3 |
| 20260903172605 | 79 | 242 | 0.0 | 4.3 | 0.00 | 0.48 | 0.48 | 80 | 1013.3 |
| 20260903171605 | 79 | 198 | 1.7 | 7.0 | 0.00 | 0.48 | 0.48 | 84 | 1013.3 |
| 20260903171106 | 78 | 210 | 0.9 | 2.6 | 0.00 | 0.48 | 0.48 | 85 | 1013.4 |
| 20260903170605 | 78 | 216 | 0.9 | 1.7 | 0.00 | 0.48 | 0.48 | 84 | 1013.4 |
| 20260903170106 | 78 | 219 | 0.0 | 2.6 | 0.00 | 0.48 | 0.48 | 83 | 1013.3 |
| 20260903165605 | 78 | 208 | 1.7 | 2.6 | 0.00 | 0.48 | 0.48 | 86 | 1013.3 |
| 20260903165106 | 77 | 202 | 0.9 | 1.7 | 0.00 | 0.48 | 0.48 | 88 | 1013.4 |
| 20260903164605 | 77 | 202 | 0.9 | 1.7 | 0.00 | 0.48 | 0.48 | 88 | 1013.4 |
| 20260903164106 | 76 | 202 | 0.0 | 2.6 | 0.00 | 0.48 | 0.48 | 87 | 1013.4 |
| 20260903163605 | 76 | 148 | 0.9 | 2.6 | 0.00 | 0.48 | 0.48 | 88 | 1013.5 |
| 20260903163106 | 76 | 142 | 0.9 | 1.7 | 0.00 | 0.48 | 0.48 | 87 | 1013.6 |
| 20260903162105 | 76 | 187 | 1.7 | 6.1 | 0.00 | 0.48 | 0.48 | 89 | 1013.6 |
| 20260903161605 | 76 | 215 | 1.7 | 2.6 | 0.00 | 0.48 | 0.48 | 89 | 1013.8 |
| 20260903161105 | 75 | 208 | 0.9 | 2.6 | 0.00 | 0.48 | 0.48 | 90 | 1013.9 |
| 20260903160605 | 75 | 157 | 0.9 | 2.6 | 0.00 | 0.48 | 0.48 | 91 | 1013.9 |
| 20260903160106 | 75 | 208 | 1.7 | 6.1 | 0.00 | 0.48 | 0.48 | 93 | 1013.9 |
| 20260903155605 | 75 | 202 | 0.9 | 2.6 | 0.00 | 0.48 | 0.48 | 94 | 1014.0 |
| 20260903155106 | 75 | 157 | 0.9 | 2.6 | 0.00 | 0.48 | 0.48 | 94 | 1013.9 |
| 20260903154606 | 74 | 148 | 0.9 | 2.6 | 0.00 | 0.48 | 0.48 | 95 | 1013.9 |
| 20260903154105 | 74 | 216 | 0.0 | 1.7 | 0.00 | 0.48 | 0.48 | 96 | 1014.0 |
| 20260903153606 | 74 | 198 | 0.0 | 0.9 | 0.00 | 0.48 | 0.48 | 95 | 1014.1 |
| 20260903153105 | 74 | 198 | 0.0 | 0.9 | 0.00 | 0.48 | 0.48 | 96 | 1014.2 |
| 20260903152605 | 74 | 198 | 0.9 | 1.7 | 0.00 | 0.48 | 0.48 | 96 | 1014.2 |
| 20260903151605 | 74 | 198 | 0.0 | 1.7 | 0.00 | 0.48 | 0.48 | 96 | 1014.2 |
| 20260903151105 | 73 | 198 | 0.9 | 1.7 | 0.00 | 0.48 | 0.48 | 96 | 1014.4 |
| 20260903150605 | 73 | 198 | 0.0 | 1.7 | 0.00 | 0.48 | 0.48 | 96 | 1014.4 |
| 20260903145605 | 73 | 208 | 0.9 | 2.6 | 0.00 | 0.48 | 0.48 | 97 | 1014.3 |
| 20260903144606 | 73 | 117 | 0.0 | 1.7 | 0.00 | 0.48 | 0.48 | 97 | 1014.2 |
| 20260903144106 | 73 | 222 | 0.9 | 2.6 | 0.00 | 0.48 | 0.48 | 97 | 1014.2 |
| 20260903143605 | 73 | 209 | 0.0 | 2.6 | 0.00 | 0.48 | 0.48 | 97 | 1014.2 |
| 20260903143106 | 73 | 212 | 0.9 | 2.6 | 0.00 | 0.48 | 0.48 | 97 | 1014.2 |
| 20260903142105 | 72 | 250 | 0.9 | 1.7 | 0.00 | 0.48 | 0.48 | 98 | 1014.3 |
| 20260903141605 | 72 | 250 | 0.9 | 1.7 | 0.00 | 0.48 | 0.48 | 97 | 1014.4 |
| 20260903140605 | 72 | 250 | 0.0 | 1.7 | 0.00 | 0.48 | 0.48 | 98 | 1014.5 |
| 20260903135605 | 72 | 247 | 0.9 | 1.7 | 0.00 | 0.48 | 0.48 | 98 | 1014.5 |
| 20260903135107 | 72 | 246 | 0.0 | 0.9 | 0.00 | 0.48 | 0.48 | 98 | 1014.5 |
| 20260903134605 | 72 | 246 | 0.0 | 0.9 | 0.00 | 0.48 | 0.48 | 97 | 1014.6 |
| 20260903134106 | 72 | 246 | 0.0 | 0.9 | 0.00 | 0.48 | 0.48 | 97 | 1014.7 |
| 20260903133607 | 72 | 246 | 0.9 | 1.7 | 0.00 | 0.48 | 0.48 | 98 | 1014.6 |
| 20260903133105 | 72 | 246 | 0.9 | 1.7 | 0.00 | 0.48 | 0.48 | 98 | 1014.6 |
| 20260903132605 | 72 | 246 | 0.9 | 1.7 | 0.00 | 0.48 | 0.48 | 98 | 1014.6 |
| 20260903132105 | 71 | 245 | 0.9 | 1.7 | 0.00 | 0.48 | 0.48 | 98 | 1014.7 |
| 20260903131605 | 71 | 251 | 0.9 | 1.7 | 0.00 | 0.48 | 0.48 | 98 | 1015.0 |
| 20260903131105 | 71 | 202 | 0.9 | 1.7 | 0.00 | 0.48 | 0.48 | 98 | 1015.0 |
| 20260903130605 | 71 | 182 | 0.0 | 1.7 | 0.00 | 0.48 | 0.48 | 98 | 1014.9 |
| 20260903130105 | 71 | 182 | 0.0 | 0.9 | 0.00 | 0.48 | 0.48 | 98 | 1015.0 |
| 20260903125606 | 70 | 182 | 0.0 | 1.7 | 0.00 | 0.48 | 0.48 | 98 | 1015.0 |
| 20260903125105 | 70 | 182 | 0.0 | 0.9 | 0.00 | 0.48 | 0.48 | 98 | 1015.0 |
| 20260903124606 | 69 | 186 | 0.0 | 0.0 | 0.00 | 0.48 | 0.48 | 98 | 1015.0 |
| 20260903124105 | 69 | 186 | 0.9 | 1.7 | 0.00 | 0.48 | 0.48 | 98 | 1015.0 |
| 20260903121605 | 69 | 186 | 0.0 | 0.0 | 0.00 | 0.48 | 0.48 | 97 | 1015.6 |
| 20260903121105 | 69 | 186 | 0.0 | 0.0 | 0.00 | 0.48 | 0.48 | 97 | 1015.5 |
| 20260903120605 | 68 | 186 | 0.0 | 0.9 | 0.00 | 0.48 | 0.48 | 97 | 1015.4 |
| 20260903120106 | 68 | 186 | 0.0 | 1.7 | 0.00 | 0.48 | 0.48 | 97 | 1015.5 |
| 20260903115606 | 68 | 215 | 0.0 | 0.0 | 0.00 | 0.48 | 0.48 | 97 | 1015.5 |
| 20260903115105 | 68 | 215 | 0.0 | 0.9 | 0.00 | 0.48 | 0.48 | 97 | 1015.6 |
| 20260903114605 | 68 | 215 | 0.9 | 1.7 | 0.00 | 0.48 | 0.48 | 97 | 1015.8 |
| 20260903114105 | 68 | 215 | 0.0 | 1.7 | 0.00 | 0.48 | 0.48 | 97 | 1015.7 |
| 20260903113605 | 68 | 215 | 0.0 | 0.9 | 0.00 | 0.48 | 0.48 | 97 | 1015.7 |
| 20260903113105 | 68 | 215 | 0.0 | 0.9 | 0.00 | 0.48 | 0.48 | 97 | 1015.8 |
| 20260903112605 | 68 | 215 | 0.0 | 1.7 | 0.00 | 0.48 | 0.48 | 97 | 1015.7 |
| 20260903112105 | 68 | 215 | 0.0 | 0.9 | 0.00 | 0.48 | 0.48 | 97 | 1015.8 |
| 20260903111605 | 67 | 215 | 0.0 | 1.7 | 0.00 | 0.48 | 0.48 | 97 | 1015.6 |
| 20260903110605 | 67 | 215 | 0.9 | 1.7 | 0.00 | 0.48 | 0.48 | 97 | 1015.6 |
| 20260903110105 | 67 | 215 | 0.0 | 0.9 | 0.00 | 0.48 | 0.48 | 97 | 1015.6 |
| 20260903105605 | 67 | 215 | 0.0 | 1.7 | 0.00 | 0.48 | 0.48 | 97 | 1015.6 |
| 20260903105105 | 67 | 215 | 0.0 | 1.7 | 0.00 | 0.48 | 0.48 | 97 | 1015.5 |
| 20260903104605 | 67 | 215 | 0.0 | 0.9 | 0.00 | 0.48 | 0.48 | 97 | 1015.4 |
| 20260903104105 | 67 | 215 | 0.0 | 0.0 | 0.00 | 0.48 | 0.48 | 97 | 1015.4 |
| 20260903103605 | 67 | 215 | 0.0 | 0.0 | 0.00 | 0.48 | 0.48 | 97 | 1015.3 |
| 20260903103105 | 67 | 215 | 0.0 | 0.0 | 0.00 | 0.48 | 0.48 | 97 | 1015.3 |
| 20260903102105 | 67 | 215 | 0.9 | 1.7 | 0.00 | 0.48 | 0.48 | 97 | 1015.5 |
| 20260903101605 | 67 | 215 | 0.0 | 0.0 | 0.00 | 0.48 | 0.48 | 97 | 1015.4 |
| 20260903101105 | 67 | 215 | 0.0 | 0.9 | 0.00 | 0.48 | 0.48 | 97 | 1015.3 |
| 20260903100605 | 67 | 215 | 0.0 | 0.0 | 0.00 | 0.48 | 0.48 | 97 | 1015.0 |
| 20260903100105 | 67 | 215 | 0.0 | 0.0 | 0.00 | 0.48 | 0.48 | 97 | 1014.8 |
| 20260903095605 | 67 | 215 | 0.0 | 0.9 | 0.00 | 0.48 | 0.48 | 97 | 1014.9 |
| 20260903095105 | 67 | 215 | 0.0 | 0.9 | 0.00 | 0.48 | 0.48 | 97 | 1015.0 |
| 20260903094605 | 67 | 215 | 0.0 | 1.7 | 0.00 | 0.48 | 0.48 | 97 | 1015.0 |
| 20260903094105 | 67 | 215 | 0.0 | 0.9 | 0.00 | 0.48 | 0.48 | 96 | 1014.8 |
| 20260903093105 | 67 | 215 | 0.0 | 0.9 | 0.00 | 0.48 | 0.48 | 96 | 1014.8 |
| 20260903092605 | 67 | 215 | 0.0 | 0.0 | 0.00 | 0.48 | 0.48 | 96 | 1014.8 |
| 20260903092105 | 67 | 215 | 0.0 | 0.0 | 0.00 | 0.48 | 0.48 | 96 | 1015.0 |
| 20260903091605 | 67 | 215 | 0.0 | 0.0 | 0.00 | 0.48 | 0.48 | 96 | 1015.0 |
| 20260903091105 | 67 | 215 | 0.0 | 0.0 | 0.00 | 0.48 | 0.48 | 96 | 1015.1 |
| 20260903090605 | 67 | 215 | 0.0 | 0.0 | 0.00 | 0.48 | 0.48 | 96 | 1015.0 |
| 20260903085605 | 67 | 215 | 0.0 | 0.9 | 0.00 | 0.48 | 0.48 | 96 | 1015.2 |
| 20260903085105 | 67 | 215 | 0.9 | 0.9 | 0.00 | 0.48 | 0.48 | 96 | 1015.1 |
| 20260903084605 | 67 | 215 | 0.9 | 1.7 | 0.00 | 0.48 | 0.48 | 96 | 1015.1 |
| 20260903084105 | 67 | 215 | 0.0 | 0.0 | 0.00 | 0.48 | 0.48 | 96 | 1015.1 |
| 20260903083106 | 67 | 215 | 0.0 | 0.0 | 0.00 | 0.48 | 0.48 | 96 | 1015.3 |
| 20260903082605 | 67 | 215 | 0.0 | 0.0 | 0.00 | 0.48 | 0.48 | 96 | 1015.4 |
| 20260903082105 | 67 | 215 | 0.9 | 0.9 | 0.01 | 0.48 | 0.48 | 96 | 1015.4 |
| 20260903081605 | 67 | 215 | 0.0 | 0.9 | 0.01 | 0.48 | 0.48 | 96 | 1015.5 |
| 20260903081105 | 67 | 215 | 0.0 | 0.0 | 0.01 | 0.48 | 0.48 | 96 | 1015.5 |
| 20260903080605 | 67 | 215 | 0.0 | 0.0 | 0.01 | 0.48 | 0.48 | 96 | 1015.6 |
| 20260903080106 | 67 | 215 | 0.0 | 0.0 | 0.01 | 0.48 | 0.48 | 96 | 1015.6 |
| 20260903075606 | 66 | 215 | 0.0 | 0.9 | 0.01 | 0.48 | 0.48 | 96 | 1015.7 |
| 20260903075105 | 66 | 215 | 0.0 | 0.0 | 0.02 | 0.48 | 0.48 | 96 | 1015.7 |
| 20260903074606 | 66 | 215 | 0.0 | 0.0 | 0.02 | 0.48 | 0.48 | 96 | 1015.8 |
| 20260903074105 | 66 | 215 | 0.0 | 0.0 | 0.02 | 0.48 | 0.48 | 96 | 1015.8 |
| 20260903073604 | 66 | 215 | 0.0 | 0.0 | 0.02 | 0.48 | 0.48 | 96 | 1016.0 |
| 20260903073105 | 66 | 215 | 0.0 | 0.0 | 0.02 | 0.48 | 0.48 | 96 | 1016.0 |
| 20260903072605 | 66 | 215 | 0.0 | 0.0 | 0.02 | 0.48 | 0.48 | 96 | 1016.1 |
| 20260903071606 | 66 | 215 | 0.9 | 1.7 | 0.03 | 0.47 | 0.47 | 96 | 1016.2 |
| 20260903071105 | 66 | 215 | 0.0 | 0.0 | 0.04 | 0.47 | 0.47 | 96 | 1016.0 |
| 20260903070605 | 66 | 215 | 0.0 | 0.9 | 0.07 | 0.47 | 0.47 | 96 | 1016.0 |
| 20260903070105 | 66 | 215 | 0.0 | 0.9 | 0.16 | 0.47 | 0.47 | 96 | 1016.1 |
| 20260903065605 | 66 | 215 | 0.0 | 0.9 | 0.28 | 0.47 | 0.47 | 96 | 1016.2 |
| 20260903065105 | 66 | 215 | 0.0 | 1.7 | 0.40 | 0.46 | 0.46 | 96 | 1016.0 |
| 20260903064605 | 66 | 215 | 0.9 | 1.7 | 0.44 | 0.46 | 0.46 | 95 | 1015.9 |
| 20260903064105 | 66 | 215 | 0.9 | 1.7 | 0.45 | 0.46 | 0.46 | 95 | 1015.8 |
| 20260903063605 | 66 | 215 | 0.0 | 0.9 | 0.45 | 0.46 | 0.46 | 95 | 1016.0 |
| 20260903063105 | 66 | 215 | 0.0 | 1.7 | 0.46 | 0.46 | 0.46 | 95 | 1016.3 |
| 20260903062605 | 66 | 215 | 0.9 | 1.7 | 0.46 | 0.46 | 0.46 | 95 | 1016.3 |
| 20260903062105 | 66 | 215 | 0.0 | 1.7 | 0.45 | 0.45 | 0.45 | 95 | 1016.2 |
| 20260903061606 | 66 | 184 | 0.0 | 1.7 | 0.44 | 0.44 | 0.44 | 95 | 1016.4 |
| 20260903061105 | 66 | 184 | 0.9 | 1.7 | 0.43 | 0.43 | 0.43 | 95 | 1016.7 |
| 20260903060105 | 66 | 184 | 0.9 | 1.7 | 0.31 | 0.31 | 0.31 | 95 | 1017.6 |
| 20260903055605 | 66 | 184 | 0.9 | 1.7 | 0.19 | 0.19 | 0.19 | 94 | 1017.7 |
| 20260903055105 | 66 | 184 | 0.9 | 1.7 | 0.06 | 0.06 | 0.06 | 94 | 1017.7 |
| 20260903054105 | 66 | 182 | 0.0 | 0.0 | 0.01 | 0.01 | 0.01 | 94 | 1017.6 |
| 20260903053605 | 66 | 182 | 0.0 | 1.7 | 0.01 | 0.01 | 0.01 | 94 | 1017.7 |
| 20260903053105 | 66 | 182 | 0.0 | 0.0 | 0.00 | 0.00 | 0.00 | 93 | 1017.7 |
| 20260903052605 | 66 | 182 | 0.0 | 0.0 | 0.00 | 0.00 | 0.00 | 93 | 1017.8 |
| 20260903052105 | 66 | 182 | 0.0 | 0.0 | 0.00 | 0.00 | 0.00 | 93 | 1017.9 |
| 20260903051616 | 66 | 182 | 0.0 | 0.0 | 0.00 | 0.00 | 0.00 | 93 | 1017.9 |
| 20260903051105 | 66 | 182 | 0.0 | 0.0 | 0.00 | 0.00 | 0.00 | 93 | 1017.9 |
| 20260903050605 | 66 | 182 | 0.0 | 0.0 | 0.00 | 0.00 | 0.00 | 93 | 1018.0 |
| 20260903050105 | 66 | 182 | 0.0 | 0.0 | 0.00 | 0.00 | 0.00 | 92 | 1018.1 |
| 20260903045605 | 66 | 182 | 0.0 | 0.0 | 0.00 | 0.00 | 0.00 | 92 | 1018.1 |
| 20260903044605 | 66 | 182 | 0.0 | 0.0 | 0.00 | 0.00 | 0.00 | 92 | 1018.3 |
| 20260903044105 | 66 | 182 | 0.0 | 0.0 | 0.00 | 0.00 | 0.00 | 92 | 1018.4 |
| 20260903043104 | 66 | 182 | 0.0 | 0.0 | 0.00 | 0.01 | 0.00 | 91 | 1018.3 |
| 20260903042605 | 66 | 182 | 0.0 | 0.0 | 0.00 | 0.01 | 0.00 | 91 | 1018.3 |
| 20260903042104 | 66 | 182 | 0.0 | 0.0 | 0.00 | 0.01 | 0.00 | 91 | 1018.5 |
| 20260903041605 | 66 | 182 | 0.0 | 0.0 | 0.00 | 0.01 | 0.00 | 91 | 1018.6 |
| 20260903041106 | 66 | 182 | 0.0 | 0.0 | 0.00 | 0.01 | 0.00 | 91 | 1018.6 |
| 20260903040105 | 66 | 182 | 0.0 | 1.7 | 0.00 | 0.01 | 0.00 | 91 | 1018.6 |
| 20260903035605 | 66 | 182 | 0.0 | 0.9 | 0.00 | 0.01 | 0.01 | 90 | 1018.4 |
| 20260903035105 | 66 | 182 | 0.0 | 0.9 | 0.00 | 0.01 | 0.01 | 90 | 1018.4 |
| 20260903034605 | 66 | 182 | 0.9 | 0.9 | 0.00 | 0.01 | 0.01 | 90 | 1018.4 |
| 20260903033604 | 66 | 182 | 0.0 | 0.9 | 0.00 | 0.01 | 0.01 | 90 | 1018.3 |
| 20260903033104 | 66 | 182 | 0.0 | 0.0 | 0.00 | 0.01 | 0.01 | 90 | 1018.2 |
| 20260903032604 | 66 | 182 | 0.0 | 0.9 | 0.00 | 0.01 | 0.01 | 90 | 1018.1 |
| 20260903032105 | 66 | 182 | 0.0 | 0.0 | 0.00 | 0.01 | 0.01 | 90 | 1018.3 |
| 20260903031605 | 66 | 182 | 0.0 | 0.9 | 0.00 | 0.01 | 0.01 | 90 | 1018.5 |
| 20260903031115 | 66 | 182 | 0.9 | 2.6 | 0.00 | 0.01 | 0.01 | 89 | 1018.6 |
| 20260903030635 | 66 | 183 | 0.0 | 0.0 | 0.00 | 0.01 | 0.01 | 89 | 1018.6 |
| 20260903030105 | 66 | 183 | 0.0 | 0.0 | 0.00 | 0.01 | 0.01 | 89 | 1018.8 |
| 20260903025605 | 66 | 183 | 0.0 | 0.0 | 0.00 | 0.01 | 0.01 | 89 | 1019.0 |
| 20260903025104 | 66 | 183 | 0.0 | 0.9 | 0.00 | 0.01 | 0.01 | 89 | 1019.2 |
| 20260903024604 | 66 | 182 | 0.0 | 0.0 | 0.00 | 0.01 | 0.01 | 89 | 1019.1 |
| 20260903024104 | 66 | 182 | 0.0 | 0.9 | 0.00 | 0.01 | 0.01 | 88 | 1019.2 |
| 20260903023605 | 66 | 182 | 0.0 | 0.9 | 0.00 | 0.01 | 0.01 | 88 | 1019.2 |
| 20260903023105 | 66 | 182 | 0.0 | 0.9 | 0.00 | 0.01 | 0.01 | 88 | 1019.2 |
| 20260903022604 | 67 | 182 | 0.0 | 0.0 | 0.00 | 0.01 | 0.01 | 87 | 1019.3 |
| 20260903022104 | 67 | 182 | 0.0 | 0.0 | 0.00 | 0.01 | 0.01 | 87 | 1019.4 |
| 20260903021605 | 67 | 182 | 0.0 | 0.0 | 0.00 | 0.01 | 0.01 | 86 | 1019.4 |
| 20260903021105 | 67 | 182 | 0.0 | 0.0 | 0.00 | 0.01 | 0.01 | 86 | 1019.5 |
| 20260903020605 | 67 | 182 | 0.0 | 0.0 | 0.00 | 0.01 | 0.01 | 86 | 1019.6 |
| 20260903020104 | 67 | 182 | 0.0 | 0.0 | 0.00 | 0.01 | 0.01 | 86 | 1019.6 |
| 20260903015605 | 67 | 182 | 0.0 | 0.0 | 0.00 | 0.01 | 0.01 | 85 | 1019.6 |
| 20260903013105 | 67 | 185 | 0.0 | 2.6 | 0.00 | 0.01 | 0.01 | 83 | 1019.5 |
| 20260903012605 | 67 | 169 | 0.0 | 1.7 | 0.00 | 0.01 | 0.01 | 83 | 1019.7 |
| 20260903012105 | 67 | 204 | 1.7 | 2.6 | 0.00 | 0.01 | 0.01 | 83 | 1019.6 |
| 20260903011604 | 67 | 164 | 0.0 | 2.6 | 0.00 | 0.01 | 0.01 | 83 | 1019.7 |
| 20260903011105 | 67 | 164 | 0.9 | 2.6 | 0.00 | 0.01 | 0.01 | 83 | 1019.6 |
| 20260903010604 | 67 | 155 | 1.7 | 2.6 | 0.00 | 0.01 | 0.01 | 83 | 1019.6 |
| 20260903010104 | 67 | 188 | 0.9 | 4.3 | 0.00 | 0.01 | 0.01 | 83 | 1019.7 |
| 20260903005605 | 67 | 148 | 0.9 | 2.6 | 0.00 | 0.01 | 0.01 | 84 | 1019.8 |
| 20260903004604 | 67 | 141 | 0.9 | 1.7 | 0.00 | 0.01 | 0.01 | 84 | 1019.9 |
| 20260903004105 | 67 | 138 | 0.0 | 1.7 | 0.00 | 0.01 | 0.01 | 83 | 1020.0 |
| 20260903003605 | 67 | 149 | 0.9 | 2.6 | 0.00 | 0.01 | 0.01 | 84 | 1019.9 |
| 20260903003105 | 68 | 219 | 0.0 | 0.9 | 0.00 | 0.01 | 0.01 | 84 | 1019.7 |
| 20260903002604 | 68 | 219 | 0.0 | 1.7 | 0.00 | 0.01 | 0.01 | 84 | 1019.7 |
| 20260903001604 | 68 | 157 | 0.0 | 0.9 | 0.00 | 0.01 | 0.01 | 82 | 1019.4 |
| 20260903001105 | 68 | 157 | 0.9 | 1.7 | 0.00 | 0.01 | 0.01 | 82 | 1019.3 |
| 20260903000604 | 68 | 157 | 2.6 | 2.6 | 0.00 | 0.01 | 0.01 | 82 | 1019.3 |
| 20260903000104 | 68 | 160 | 0.9 | 2.6 | 0.00 | 0.01 | 0.01 | 82 | 1019.1 |
| 20260902235605 | 68 | 196 | 1.7 | 2.6 | 0.00 | 0.01 | 0.01 | 82 | 1019.2 |
| 20260902235105 | 68 | 147 | 1.7 | 4.3 | 0.00 | 0.01 | 0.01 | 81 | 1019.3 |
| 20260902234604 | 68 | 168 | 1.7 | 7.0 | 0.00 | 0.01 | 0.01 | 81 | 1019.3 |
| 20260902234104 | 68 | 189 | 0.9 | 5.2 | 0.00 | 0.01 | 0.01 | 82 | 1019.4 |